[keps] orb12229.amsat
Ray Hoad
ray.hoad at mypbmail.com
Thu Aug 16 20:15:27 PDT 2012
SB KEPS @ AMSAT $ORB12229.O
Orbital Elements 12229.OSCAR
HR AMSAT ORBITAL ELEMENTS FOR OSCAR SATELLITES
FROM WA5QGD FORT WORTH,TX August 16, 2012
Send SUBSCRIBE KEPS/UNSUBSCRIBE KEPS to majordomo at amsat.org only
BID: ORB12229.O
TO ALL RADIO AMATEURS BT
Satellite: AO-07
Catalog number: 07530
Epoch time: 12229.63791937
Element set: 457
Inclination: 101.4077 deg
RA of node: 224.5250 deg
Eccentricity: 0.0011696
Arg of perigee: 162.6981 deg
Mean anomaly: 197.4486 deg
Mean motion: 12.53590678 rev/day
Decay rate: -2.7e-07 rev/day^2
Epoch rev: 72762
Checksum: 325
Satellite: FO-29
Catalog number: 24278
Epoch time: 12228.86218974
Element set: 914
Inclination: 098.5871 deg
RA of node: 321.7164 deg
Eccentricity: 0.0349762
Arg of perigee: 234.7890 deg
Mean anomaly: 122.0040 deg
Mean motion: 13.52986448 rev/day
Decay rate: -4.9e-07 rev/day^2
Epoch rev: 79002
Checksum: 336
Satellite: SO-33
Catalog number: 25509
Epoch time: 12229.70739051
Element set: 300
Inclination: 031.4362 deg
RA of node: 351.1857 deg
Eccentricity: 0.0352103
Arg of perigee: 012.7921 deg
Mean anomaly: 348.1374 deg
Mean motion: 14.28799940 rev/day
Decay rate: 1.87e-06 rev/day^2
Epoch rev: 72131
Checksum: 286
Satellite: RS-22
Catalog number: 27939
Epoch time: 12229.75503866
Element set: 637
Inclination: 097.8091 deg
RA of node: 067.4558 deg
Eccentricity: 0.0014624
Arg of perigee: 074.1921 deg
Mean anomaly: 286.0895 deg
Mean motion: 14.64095800 rev/day
Decay rate: 3.33e-06 rev/day^2
Epoch rev: 47474
Checksum: 336
Satellite: VO-52
Catalog number: 28650
Epoch time: 12228.63127798
Element set: 181
Inclination: 097.5946 deg
RA of node: 256.6730 deg
Eccentricity: 0.0025676
Arg of perigee: 203.5497 deg
Mean anomaly: 156.4553 deg
Mean motion: 14.83099362 rev/day
Decay rate: 4.69e-06 rev/day^2
Epoch rev: 39378
Checksum: 354
Satellite: HO-68
Catalog number: 36122
Epoch time: 12229.71730422
Element set: 744
Inclination: 100.3565 deg
RA of node: 287.8298 deg
Eccentricity: 0.0007402
Arg of perigee: 333.6144 deg
Mean anomaly: 026.4589 deg
Mean motion: 13.16297423 rev/day
Decay rate: -4.4e-07 rev/day^2
Epoch rev: 12835
Checksum: 297
/EX
SB KEPS @ AMSAT $ORB12229.D
Orbital Elements 12229.MICROS
HR AMSAT ORBITAL ELEMENTS FOR THE MICROSATS
FROM WA5QGD FORT WORTH,TX August 16, 2012
Send SUBSCRIBE KEPS/UNSUBSCRIBE KEPS to majordomo at amsat.org only
BID: ORB12229.D
TO ALL RADIO AMATEURS BT
Satellite: UO-11
Catalog number: 14781
Epoch time: 12228.93460168
Element set: 0961
Inclination: 097.9497 deg
RA of node: 287.9179 deg
Eccentricity: 0.0008551
Arg of perigee: 191.8473 deg
Mean anomaly: 168.2540 deg
Mean motion: 14.80521552 rev/day
Decay rate: 3.80e-06 rev/day^2
Epoch rev: 52877
Checksum: 340
Satellite: AO-16
Catalog number: 20439
Epoch time: 12229.80384363
Element set: 535
Inclination: 098.4339 deg
RA of node: 171.4912 deg
Eccentricity: 0.0010971
Arg of perigee: 345.0089 deg
Mean anomaly: 015.0772 deg
Mean motion: 14.32074242 rev/day
Decay rate: 8.8e-07 rev/day^2
Epoch rev: 17867
Checksum: 304
Satellite: LO-19
Catalog number: 20442
Epoch time: 12228.90950712
Element set: 0476
Inclination: 098.3982 deg
RA of node: 173.4181 deg
Eccentricity: 0.0011419
Arg of perigee: 339.4832 deg
Mean anomaly: 020.5899 deg
Mean motion: 14.32291115 rev/day
Decay rate: 1.10e-06 rev/day^2
Epoch rev: 17873
Checksum: 299
Satellite: AO-27
Catalog number: 22825
Epoch time: 12228.81243222
Element set: 173
Inclination: 098.5740 deg
RA of node: 170.7095 deg
Eccentricity: 0.0009500
Arg of perigee: 104.2784 deg
Mean anomaly: 255.9492 deg
Mean motion: 14.29477479 rev/day
Decay rate: 7.6e-07 rev/day^2
Epoch rev: 98499
Checksum: 333
Satellite: IO-26
Catalog number: 22826
Epoch time: 12228.87184984
Element set: 0939
Inclination: 098.5722 deg
RA of node: 171.1225 deg
Eccentricity: 0.0009842
Arg of perigee: 096.9173 deg
Mean anomaly: 263.3127 deg
Mean motion: 14.29752633 rev/day
Decay rate: 9.9e-07 rev/day^2
Epoch rev: 98513
Checksum: 344
Satellite: GO-32
Catalog number: 25397
Epoch time: 12229.50428062
Element set: 850
Inclination: 098.3663 deg
RA of node: 205.2626 deg
Eccentricity: 0.0002315
Arg of perigee: 101.8354 deg
Mean anomaly: 258.3072 deg
Mean motion: 14.23286755 rev/day
Decay rate: -7.7e-07 rev/day^2
Epoch rev: 73260
Checksum: 292
Satellite: NO-44
Catalog number: 26931
Epoch time: 12228.77844453
Element set: 0115
Inclination: 067.0543 deg
RA of node: 326.7529 deg
Eccentricity: 0.0007052
Arg of perigee: 255.5951 deg
Mean anomaly: 104.4358 deg
Mean motion: 14.29821238 rev/day
Decay rate: 2.01e-06 rev/day^2
Epoch rev: 56776
Checksum: 307
Satellite: SO-50
Catalog number: 27607
Epoch time: 12229.68527085
Element set: 839
Inclination: 064.5578 deg
RA of node: 110.8570 deg
Eccentricity: 0.0079435
Arg of perigee: 236.5501 deg
Mean anomaly: 122.7991 deg
Mean motion: 14.72461920 rev/day
Decay rate: 2.48e-06 rev/day^2
Epoch rev: 51887
Checksum: 331
Satellite: CO-55
Catalog number: 27844
Epoch time: 12228.55949576
Element set: 0441
Inclination: 098.7036 deg
RA of node: 236.0782 deg
Eccentricity: 0.0010645
Arg of perigee: 053.3830 deg
Mean anomaly: 306.8323 deg
Mean motion: 14.21055967 rev/day
Decay rate: 2.00e-06 rev/day^2
Epoch rev: 47332
Checksum: 304
Satellite: CO-57
Catalog number: 27848
Epoch time: 12228.50317787
Element set: 0392
Inclination: 098.7116 deg
RA of node: 235.3826 deg
Eccentricity: 0.0010646
Arg of perigee: 059.3335 deg
Mean anomaly: 300.8882 deg
Mean motion: 14.20803336 rev/day
Decay rate: 1.45e-06 rev/day^2
Epoch rev: 47325
Checksum: 314
Satellite: AO-51
Catalog number: 28375
Epoch time: 12229.90812125
Element set: 342
Inclination: 098.1535 deg
RA of node: 192.3795 deg
Eccentricity: 0.0082554
Arg of perigee: 217.0022 deg
Mean anomaly: 142.5463 deg
Mean motion: 14.40975432 rev/day
Decay rate: 1.21e-06 rev/day^2
Epoch rev: 42751
Checksum: 286
Satellite: CP3
Catalog number: 31129
Epoch time: 12228.50697715
Element set: 238
Inclination: 097.8829 deg
RA of node: 232.7974 deg
Eccentricity: 0.0099742
Arg of perigee: 299.1409 deg
Mean anomaly: 059.9832 deg
Mean motion: 14.53167011 rev/day
Decay rate: 4.97e-06 rev/day^2
Epoch rev: 28259
Checksum: 349
Satellite: CO-65
Catalog number: 32785
Epoch time: 12228.68528809
Element set: 0391
Inclination: 097.7966 deg
RA of node: 288.3187 deg
Eccentricity: 0.0013635
Arg of perigee: 224.5922 deg
Mean anomaly: 135.4158 deg
Mean motion: 14.83113596 rev/day
Decay rate: 1.116e-05 rev/day^2
Epoch rev: 23258
Checksum: 341
Satellite: PRISM
Catalog number: 33493
Epoch time: 12229.67360426
Element set: 980
Inclination: 098.1785 deg
RA of node: 011.7140 deg
Eccentricity: 0.0019946
Arg of perigee: 100.3567 deg
Mean anomaly: 259.9884 deg
Mean motion: 14.84163122 rev/day
Decay rate: 2.300e-05 rev/day^2
Epoch rev: 19272
Checksum: 303
Satellite: SOHLA-1
Catalog number: 33496
Epoch time: 12229.88951015
Element set: 807
Inclination: 098.1073 deg
RA of node: 341.2409 deg
Eccentricity: 0.0006004
Arg of perigee: 199.6605 deg
Mean anomaly: 160.4369 deg
Mean motion: 14.70017280 rev/day
Decay rate: 3.04e-06 rev/day^2
Epoch rev: 19116
Checksum: 285
Satellite: SO-67
Catalog number: 35870
Epoch time: 12229.72481044
Element set: 239
Inclination: 097.2291 deg
RA of node: 263.3465 deg
Eccentricity: 0.0001830
Arg of perigee: 010.9643 deg
Mean anomaly: 126.5072 deg
Mean motion: 15.24261208 rev/day
Decay rate: 3.318e-05 rev/day^2
Epoch rev: 16183
Checksum: 287
Satellite: TISAT-1
Catalog number: 36799
Epoch time: 12229.76677438
Element set: 256
Inclination: 098.0593 deg
RA of node: 306.5401 deg
Eccentricity: 0.0014434
Arg of perigee: 341.8627 deg
Mean anomaly: 018.2053 deg
Mean motion: 14.82138420 rev/day
Decay rate: 1.292e-05 rev/day^2
Epoch rev: 11346
Checksum: 302
Satellite: STUDSAT
Catalog number: 36801
Epoch time: 12229.73242301
Element set: 450
Inclination: 098.0689 deg
RA of node: 307.5024 deg
Eccentricity: 0.0012297
Arg of perigee: 326.3353 deg
Mean anomaly: 033.7079 deg
Mean motion: 14.84819199 rev/day
Decay rate: 3.949e-05 rev/day^2
Epoch rev: 11350
Checksum: 298
Satellite: FO-69
Catalog number: 37227
Epoch time: 12179.46825757
Element set: 0219
Inclination: 071.9703 deg
RA of node: 289.2712 deg
Eccentricity: 0.0018108
Arg of perigee: 298.3339 deg
Mean anomaly: 061.6016 deg
Mean motion: 14.77092260 rev/day
Decay rate: 1.66e-06 rev/day^2
Epoch rev: 03761
Checksum: 323
Satellite: FO-70
Catalog number: 37380
Epoch time: 12179.47554455
Element set: 0223
Inclination: 071.9743 deg
RA of node: 289.8278 deg
Eccentricity: 0.0018623
Arg of perigee: 295.0880 deg
Mean anomaly: 064.8372 deg
Mean motion: 14.76843679 rev/day
Decay rate: 2.08e-06 rev/day^2
Epoch rev: 03750
Checksum: 341
Satellite: ALMASAT-1
Catalog number: 38078
Epoch time: 12229.48331374
Element set: 480
Inclination: 069.4870 deg
RA of node: 180.5009 deg
Eccentricity: 0.0750220
Arg of perigee: 173.3432 deg
Mean anomaly: 187.8359 deg
Mean motion: 14.11048841 rev/day
Decay rate: 1.2943e-04 rev/day^2
Epoch rev: 2605
Checksum: 297
Satellite: XATCOBEO
Catalog number: 38082
Epoch time: 12229.62974209
Element set: 477
Inclination: 069.4864 deg
RA of node: 176.5690 deg
Eccentricity: 0.0719053
Arg of perigee: 171.2363 deg
Mean anomaly: 190.2146 deg
Mean motion: 14.20533102 rev/day
Decay rate: 3.1972e-04 rev/day^2
Epoch rev: 2616
Checksum: 301
/EX
SB KEPS @ AMSAT $ORB12229.W
Orbital Elements 12229.WEATHER
HR AMSAT ORBITAL ELEMENTS FOR WEATHER SATELLITES
FROM WA5QGD FORT WORTH,TX August 16, 2012
Send SUBSCRIBE KEPS/UNSUBSCRIBE KEPS to majordomo at amsat.org only
BID: ORB12229.W
TO ALL RADIO AMATEURS BT
Satellite: NOAA-10
Catalog number: 16969
Epoch time: 12228.87639980
Element set: 0030
Inclination: 098.5787 deg
RA of node: 256.8605 deg
Eccentricity: 0.0013073
Arg of perigee: 061.8188 deg
Mean anomaly: 298.4287 deg
Mean motion: 14.27569766 rev/day
Decay rate: 9.1e-07 rev/day^2
Epoch rev: 34838
Checksum: 362
